Regional Weather Roundup
Issued by NWS

Home | Current Version | Previous Version | Text Only | Print | Product List | Glossary On
Versions: 1 2 3 4 5 6 7 8 9 10 11 12 13 14 15 16 17 18 19 20 21 22 23 24 25 26 27 28 29 30 31 32 33 34 35 36 37 38 39 40 41 42 43 44 45 46 47 48 49 50
000
ASHW40 PHFO 271843
RWRHI

WEATHER ROUNDUP FOR HAWAII
NATIONAL WEATHER SERVICE HONOLULU HI
800 AM HST WED MAY 27 2015

THIS IS AN AUTOMATED REPORT THAT HAS NOT BEEN QUALITY CONTROLLED.

NOTE..."FAIR" INDICATES FEW OR NO CLOUDS BELOW 12,000 FEET WITH NO
SIGNIFICANT WEATHER AND/OR OBSTRUCTIONS TO VISIBILITY.

* - THESE SITES REPORT LIMITED FIELDS

HIZ001>004-271900-
KAUAI-NIIHAU-

CITY           SKY/WX    TMP DP  RH WIND       PRES   REMARKS
LIHUE APT      SUNNY     68  64  87 N5        29.98R
PORT ALLEN*    NOT AVBL
POIPU*           N/A     77 N/A N/A NE3G9       N/A
PRINCEVILLE*     N/A     73 N/A N/A MISG        N/A
KOKOLE POINT*  NOT AVBL
MOLOAA DAIRY*  NOT AVBL
WAIMEA HTS*      N/A     81  59  47 SW3         N/A
PUU OPAE*        N/A     72  57  60 S3          N/A
PUU LUA*       NOT AVBL
MAKAHA RIDGE*    N/A     70  59  68 W1          N/A
$$

HIZ005>011-271900-
OAHU-

CITY           SKY/WX    TMP DP  RH WIND       PRES   REMARKS
HONOLULU       MOSUNNY   76  63  64 NW3       29.94S
KALAELOA       SUNNY     75  61  61 VRB3      29.96R
KANEOHE MCB    SUNNY     74  65  73 CALM      29.93R
WHEELER FIELD  FAIR      73  61  65 VRB1      29.94S
BELLOWS*         N/A    N/A N/A N/A N3          N/A
KAHUKU*          N/A    N/A N/A N/A E5          N/A
WHEELER*       NOT AVBL
WAIANAE HARBOR NOT AVBL
DILLINGHAM*      N/A     79  61  53 MISG        N/A
KAHUKU TRN*      N/A     64  55  72 E5G12       N/A
KAWAILOA*        N/A     72  61  68 E3          N/A
KII*             N/A     73  70  88 SE5         N/A
MAKUA RANGE*     N/A     79  61  53 SW2G8       N/A
OAHU FOREST NW   N/A    N/A N/A N/A CALM        N/A
SCHOFIELD BRK*   N/A     61  48  63 CALM        N/A
SCHOFIELD S*   NOT AVBL
WAIANAE VLY*     N/A     79  59  50 MISG        N/A
KUAOKALA*        N/A     75  63  64 NE7         N/A
HONOULIUULI*   NOT AVBL
MOKUOLOE IS*     N/A    N/A N/A N/A MISG        N/A
PALEHUA*         N/A     72  57  60 NE3         N/A
WAIAWA PHB*    NOT AVBL
$$

HIZ012>013-271900-
MOLOKAI-

CITY           SKY/WX    TMP DP  RH WIND       PRES   REMARKS
MOLOKAI AIRPT  MOSUNNY   75  64  68 N9        29.96R
KALAUPAPA      NOT AVBL
MAKAPULAPAI*     N/A     77  66  69 E6          N/A
MOLOKAI 1*       N/A     68  63  83 SE2         N/A
PUU ALII*        N/A     57  57 100 CALM        N/A
$$

HIZ016-271900-
KAHOOLAWE-

CITY           SKY/WX    TMP DP  RH WIND       PRES   REMARKS
KAHOOLAWE*       N/A     70 N/A N/A E9          N/A
HAKIOAWA*        N/A     74  67  77 MISG      30.37R
HONOKANAIA*      N/A     78  66  66 N5G13     29.96R
KANELOA*         N/A     72  66  83 NE10      29.99S
KEALIALALO*      N/A     75  64  69 E6G13     29.95S
LUA MAKIKA*    NOT AVBL
$$

HIZ014>015-271900-
LANAI-

CITY           SKY/WX    TMP DP  RH WIND       PRES   REMARKS
LANAI CITY     CLOUDY    69  63  81 NE3       30.00R
LANAI 1*         N/A     64  59  82 NE9G16      N/A
$$

HIZ017>028-271900-
MAUI-

CITY           SKY/WX    TMP DP  RH WIND       PRES   REMARKS
KAHULUI        CLOUDY    76  66  71 NE7       29.95S
KAPALUA-W MAUI PTSUNNY   73  64  73 VRB5      29.95S
HANA AIRPORT   CLOUDY    72  68  88 CALM      29.99S
HANA*            N/A     72 N/A N/A SW2         N/A
HALEAKALA SUMM NOT AVBL
MAALAEA BAY*   NOT AVBL
HALEAKALA*     NOT AVBL
KAUPO GAP*       N/A     66  61  82 CALM        N/A
KULA 1*          N/A     56  44  64 S10G23      N/A
$$

HIZ023>026-271900-
BIG ISLAND OF HAWAII COAST AND LOWER SLOPES-

CITY           SKY/WX    TMP DP  RH WIND       PRES   REMARKS
KAILUA KONA    CLOUDY    79  63  57 E5        29.92R
HILO           CLOUDY    69  66  90 SW3       29.96S
HONOKAA*       NOT AVBL
KAWAIHAE MWT*    N/A     79 N/A N/A SW2         N/A
KAWAIHAE*        N/A     77 N/A N/A W3          N/A
SOUTH POINT*     N/A     70 N/A N/A NE13        N/A
UPOLU AIRPORT*   N/A    N/A N/A N/A E9          N/A
KAMUELA*       CLEAR     73  59  60 NE8       30.03S
HAKALAU*         N/A     54  53  97 S7          N/A
KALOKO-HONOKO*   N/A     79  63  57 SW3       29.91S
PALI 2*          N/A     64  64 100 W2          N/A
KEALAKOMO*       N/A     90  82  79 E8          N/A  HX 111
KAUPULEHU*       N/A     75  63  64 E2          N/A
KAPAPALA*        N/A     68  66  94 E3          N/A
LOWER KAHUKU*    N/A     64  61  88 NE1G10      N/A
PUHE CS*         N/A     79  64  61 SW1         N/A
PUHO CS*         N/A     74  64  70 NE1         N/A
PTA KEAMUKU*     N/A     70  57  64 CALM        N/A
WAIKOLOA*        N/A     79  61  53 NW3         N/A
$$

HIZ027>028-271900-
BIG ISLAND OF HAWAII INTERIOR AND SUMMMITS-

CITY           SKY/WX    TMP DP  RH WIND       PRES   REMARKS
BRADSHAW FIELD SUNNY     59  50  72 CALM      30.23R
MK VISITOR CEN NOT AVBL
MAUNA KEA*       N/A     41  10  28 NW36        N/A
MAUNA LOA*       N/A     54   7  15 MISG        N/A
MAUNA LOA 1*   NOT AVBL
PTA KIPUKA*      N/A     61  55  82 S5G12       N/A
PTA RANGE 17*    N/A     46  41  81 W1G7        N/A
PTA WEST*        N/A     61  57  88 VRB2        N/A
NENE CABIN*      N/A     61  48  63 NE2         N/A
AHUMOA*          N/A     58  53  83 NW5         N/A
PTA PORTABLE*  NOT AVBL
PUU MALI*        N/A     55  54  94 S3          N/A
$$

HIC003-271900-
NORTHWEST ISLANDS-

CITY           SKY/WX    TMP DP  RH WIND       PRES   REMARKS
MIDWAY ISLAND  CLOUDY   N/A N/A N/A SW5       30.15R
MIDWAY NOS*    NOT AVBL
FRENCH FRIGATE NOT AVBL
$$

PHZ110>124-180-271900-
BUOY REPORTS

STATION/POSITION TIME  TEMP    WIND        PRES    WAVE   SWELL
                       AIR SEA DIR/SP/G            HT/PER HT/DIR
                 (UTC) (F)     (DEG/KT/KT) (MB)    (FT/S) (FT/D)
BUOY 51001       NOT AVBL
BUOY 51101       1800   72 74   50/ 14/ 17 1015.9R   6/ 8   5/ 30
BUOY 51100       NOT AVBL
BUOY 51002       1800   79 79   CALM  /  2 1013.3R   5/12   5/200
BUOY 51003       1800   75 79   20/ 10/ 12 1013.5R   5/13   5
BUOY 51004       1747   78 78  120/ 12/ 16 1013.7R   5/13   5/210
BARBERS PT BUOY  NOT AVBL
WAIMEA BAY BUOY  1800      77                N/A     4/ 8   2/340
KAILUA BAY BUOY  1800      77                N/A     4/ 8   2/140
LANAI BUOY       NOT AVBL
BARBERS PT 2     1800      76                N/A     3/14   2/180
PAUWELA MAUI     1800      77                N/A     3/ 9
HILO             1800      77                N/A     4/ 8   2/ 40
KANEOHE BAY BUOY 1800      77                N/A     4/ 8   2/350
HANALEI KAUAI    1800      78                N/A     5/ 8   2/320
KAHULUI HARBOR   1800   74 78   20/  5/  7 1014.0S
HONOLULU HARBOR  1800   74 76  210/  4/  5 1014.0F
KILO NALU        NOT AVBL
HILO HARBOR      1800   70 77  230/  2/  2 1014.2S
MOKUOLOE         1800      77              1014.3S
NAWILIWILI       1800   72 78  330/  4/  6 1014.5R
WHOTS BUOY       NOT AVBL
BUOY 51028       NOT AVBL
$$

......................KEY........................................
  SKY/WX - SKY CONDITIONS/PRESENT WEATHER
  TMP    - TEMPERATURE IN FAHRENHEIT
  DWPT   - DEWPOINT IN FAHRENHEIT
  RH     - RELATIVE HUMIDITY IN PERCENT
  WIND   - DIRECTION AND SPEED /MPH FOR ISLANDS...KTS FOR BUOYS/
  PRES   - MEAN SEA LEVEL PRESSURE IN INCHES OF HG
  VSB    - VISIBILITY IN MILES
  HX     - HEAT INDEX
  WCI    - WIND CHILL INDEX
  VRB    - VARIABLE WIND DIRECTION
  N/A    - NOT AVAILABLE



USA.gov is the U.S. government's official web portal to all federal, state and local government web resources and services.